| time (UTC) | temp F | wind direction | speed knots | gust knots | rain 1hr in | rain 24hr in | rain mn in | humidity % | barometer mb |
| 20260506143208 | 64 | 188 | 1.7 | 5.2 | 0.00 | 0.00 | 0.00 | 80 | 1003.9 |
| 20260506142707 | 64 | 182 | 2.6 | 5.2 | 0.00 | 0.00 | 0.00 | 80 | 1004.2 |
| 20260506142204 | 64 | 272 | 2.6 | 5.2 | 0.00 | 0.00 | 0.00 | 80 | 1003.9 |
| 20260506141702 | 64 | 164 | 0.9 | 5.2 | 0.00 | 0.00 | 0.00 | 80 | 1003.9 |
| 20260506141200 | 64 | 151 | 0.0 | 3.5 | 0.00 | 0.00 | 0.00 | 80 | 1004.2 |
| 20260506140657 | 65 | 166 | 0.0 | 6.1 | 0.00 | 0.00 | 0.00 | 79 | 1004.2 |
| 20260506140154 | 64 | 225 | 2.6 | 3.5 | 0.00 | 0.00 | 0.00 | 79 | 1004.2 |
| 20260506135651 | 64 | 157 | 1.7 | 5.2 | 0.00 | 0.00 | 0.00 | 80 | 1003.9 |
| 20260506135147 | 64 | 192 | 3.5 | 5.2 | 0.00 | 0.00 | 0.00 | 80 | 1003.9 |
| 20260506134644 | 64 | 118 | 3.5 | 7.0 | 0.00 | 0.00 | 0.00 | 79 | 1004.2 |
| 20260506134140 | 64 | 138 | 0.9 | 7.0 | 0.00 | 0.00 | 0.00 | 81 | 1004.2 |
| 20260506133637 | 64 | 166 | 0.0 | 2.6 | 0.00 | 0.00 | 0.00 | 82 | 1003.9 |
| 20260506133134 | 63 | 106 | 2.6 | 6.1 | 0.00 | 0.00 | 0.00 | 82 | 1003.9 |
| 20260506132632 | 63 | 149 | 1.7 | 2.6 | 0.00 | 0.00 | 0.00 | 83 | 1004.2 |
| 20260506132128 | 62 | 167 | 0.9 | 1.7 | 0.00 | 0.00 | 0.00 | 85 | 1003.9 |
| 20260506131626 | 61 | 191 | 0.9 | 2.6 | 0.00 | 0.00 | 0.00 | 86 | 1003.9 |
| 20260506131121 | 61 | 170 | 2.6 | 3.5 | 0.00 | 0.00 | 0.00 | 86 | 1003.9 |
| 20260506130619 | 61 | 167 | 1.7 | 2.6 | 0.00 | 0.00 | 0.00 | 86 | 1003.9 |
| 20260506130116 | 61 | 167 | 0.9 | 1.7 | 0.00 | 0.00 | 0.00 | 86 | 1003.9 |
| 20260506125614 | 61 | 143 | 1.7 | 5.2 | 0.00 | 0.00 | 0.00 | 87 | 1003.9 |
| 20260506125112 | 61 | 113 | 0.9 | 1.7 | 0.00 | 0.00 | 0.00 | 87 | 1003.9 |
| 20260506124609 | 61 | 175 | 1.7 | 3.5 | 0.00 | 0.00 | 0.00 | 87 | 1003.9 |
| 20260506124107 | 61 | 165 | 0.0 | 2.6 | 0.00 | 0.00 | 0.00 | 87 | 1004.2 |
| 20260506123604 | 60 | 107 | 2.6 | 5.2 | 0.00 | 0.00 | 0.00 | 87 | 1004.5 |
| 20260506123103 | 60 | 146 | 0.0 | 2.6 | 0.00 | 0.00 | 0.00 | 87 | 1004.2 |
| 20260506122559 | 60 | 163 | 2.6 | 5.2 | 0.00 | 0.00 | 0.00 | 87 | 1004.2 |
| 20260506122057 | 60 | 167 | 1.7 | 6.1 | 0.00 | 0.00 | 0.00 | 87 | 1004.2 |
| 20260506121554 | 60 | 163 | 0.9 | 2.6 | 0.00 | 0.00 | 0.00 | 88 | 1004.5 |
| 20260506121050 | 60 | 214 | 0.9 | 5.2 | 0.00 | 0.00 | 0.00 | 89 | 1004.5 |
| 20260506120549 | 59 | 164 | 0.0 | 2.6 | 0.00 | 0.00 | 0.00 | 89 | 1004.5 |
| 20260506120045 | 59 | 165 | 1.7 | 5.2 | 0.00 | 0.00 | 0.00 | 90 | 1004.5 |
| 20260506115544 | 59 | 117 | 1.7 | 3.5 | 0.00 | 0.00 | 0.00 | 91 | 1004.5 |
| 20260506115042 | 58 | 127 | 0.9 | 5.2 | 0.00 | 0.00 | 0.00 | 91 | 1004.2 |
| 20260506114539 | 58 | 172 | 0.0 | 6.1 | 0.00 | 0.00 | 0.00 | 92 | 1004.5 |
| 20260506114037 | 58 | 222 | 0.9 | 2.6 | 0.00 | 0.00 | 0.00 | 92 | 1004.2 |
| 20260506113535 | 57 | 167 | 0.9 | 5.2 | 0.00 | 0.00 | 0.00 | 93 | 1004.2 |
| 20260506113032 | 57 | 165 | 0.0 | 5.2 | 0.00 | 0.00 | 0.00 | 94 | 1004.2 |
| 20260506112528 | 57 | 161 | 0.9 | 3.5 | 0.00 | 0.00 | 0.00 | 94 | 1004.2 |
| 20260506112026 | 57 | 156 | 1.7 | 1.7 | 0.00 | 0.00 | 0.00 | 95 | 1004.2 |
| 20260506111524 | 56 | 243 | 1.7 | 2.6 | 0.00 | 0.00 | 0.00 | 95 | 1004.5 |
| 20260506111021 | 56 | 170 | 2.6 | 3.5 | 0.00 | 0.00 | 0.00 | 96 | 1004.5 |
| 20260506110518 | 55 | 162 | 0.9 | 2.6 | 0.00 | 0.00 | 0.00 | 97 | 1004.2 |
| 20260506110015 | 55 | 169 | 0.9 | 1.7 | 0.00 | 0.00 | 0.00 | 97 | 1004.5 |
| 20260506105511 | 55 | 174 | 0.0 | 2.6 | 0.00 | 0.00 | 0.00 | 98 | 1004.5 |
| 20260506105009 | 54 | 190 | 0.0 | 1.7 | 0.00 | 0.00 | 0.00 | 98 | 1004.5 |
| 20260506104507 | 54 | 164 | 0.9 | 3.5 | 0.00 | 0.00 | 0.00 | 98 | 1004.5 |
| 20260506104005 | 54 | 156 | 1.7 | 2.6 | 0.00 | 0.00 | 0.00 | 98 | 1004.5 |
| 20260506103501 | 54 | 99 | 2.6 | 5.2 | 0.00 | 0.00 | 0.00 | 98 | 1004.2 |
| 20260506102958 | 54 | 161 | 0.9 | 1.7 | 0.00 | 0.00 | 0.00 | 99 | 1004.2 |
| 20260506102456 | 54 | 163 | 1.7 | 1.7 | 0.00 | 0.00 | 0.00 | 99 | 1004.2 |
| 20260506101953 | 54 | 120 | 1.7 | 2.6 | 0.00 | 0.00 | 0.00 | 99 | 1004.2 |
| 20260506101449 | 54 | 137 | 0.9 | 2.6 | 0.00 | 0.00 | 0.00 | 99 | 1004.2 |
| 20260506100947 | 54 | 159 | 0.0 | 1.7 | 0.00 | 0.00 | 0.00 | 98 | 1004.2 |
| 20260506100446 | 54 | 174 | 0.9 | 2.6 | 0.00 | 0.00 | 0.00 | 98 | 1004.5 |
| 20260506095943 | 54 | 186 | 1.7 | 2.6 | 0.00 | 0.00 | 0.00 | 98 | 1004.2 |
| 20260506095442 | 54 | 162 | 0.9 | 2.6 | 0.00 | 0.00 | 0.00 | 98 | 1004.2 |
| 20260506094937 | 54 | 158 | 0.9 | 1.7 | 0.00 | 0.00 | 0.00 | 98 | 1004.2 |
| 20260506094436 | 54 | 158 | 0.9 | 2.6 | 0.00 | 0.00 | 0.00 | 97 | 1003.9 |
| 20260506093933 | 54 | 164 | 0.0 | 0.9 | 0.00 | 0.00 | 0.00 | 97 | 1004.2 |
| 20260506093431 | 54 | 147 | 0.9 | 1.7 | 0.00 | 0.00 | 0.00 | 97 | 1003.9 |
| 20260506092928 | 54 | 165 | 0.9 | 1.7 | 0.00 | 0.00 | 0.00 | 97 | 1004.2 |
| 20260506092426 | 55 | 154 | 0.9 | 3.5 | 0.00 | 0.00 | 0.00 | 97 | 1004.2 |
| 20260506091922 | 55 | 169 | 0.9 | 1.7 | 0.00 | 0.00 | 0.00 | 96 | 1004.2 |
| 20260506091421 | 55 | 145 | 1.7 | 2.6 | 0.00 | 0.00 | 0.00 | 96 | 1003.9 |
| 20260506090917 | 55 | 122 | 1.7 | 3.5 | 0.00 | 0.00 | 0.00 | 96 | 1003.9 |
| 20260506090415 | 55 | 156 | 0.9 | 2.6 | 0.00 | 0.00 | 0.00 | 96 | 1004.2 |
| 20260506085912 | 55 | 158 | 0.9 | 1.7 | 0.00 | 0.00 | 0.00 | 95 | 1004.2 |
| 20260506085409 | 55 | 200 | 1.7 | 2.6 | 0.00 | 0.00 | 0.00 | 95 | 1004.2 |
| 20260506084905 | 55 | 158 | 0.9 | 2.6 | 0.00 | 0.00 | 0.00 | 95 | 1004.5 |
| 20260506084402 | 55 | 148 | 1.7 | 1.7 | 0.00 | 0.00 | 0.00 | 95 | 1004.5 |
| 20260506083858 | 55 | 204 | 2.6 | 3.5 | 0.00 | 0.00 | 0.00 | 95 | 1004.5 |
| 20260506083356 | 55 | 144 | 1.7 | 3.5 | 0.00 | 0.00 | 0.00 | 94 | 1004.2 |
| 20260506082853 | 55 | 137 | 1.7 | 5.2 | 0.00 | 0.00 | 0.00 | 94 | 1004.5 |
| 20260506082349 | 55 | 144 | 1.7 | 5.2 | 0.00 | 0.00 | 0.00 | 94 | 1004.5 |
| 20260506081845 | 55 | 211 | 0.0 | 3.5 | 0.00 | 0.00 | 0.00 | 93 | 1004.5 |
| 20260506081344 | 55 | 177 | 0.9 | 5.2 | 0.00 | 0.00 | 0.00 | 93 | 1004.5 |
| 20260506080841 | 55 | 176 | 2.6 | 5.2 | 0.00 | 0.00 | 0.00 | 93 | 1004.5 |
| 20260506080337 | 55 | 190 | 2.6 | 5.2 | 0.00 | 0.00 | 0.00 | 93 | 1004.5 |
| 20260506073322 | 56 | 187 | 1.7 | 1.7 | 0.00 | 0.00 | 0.00 | 92 | 1004.5 |
| 20260506072818 | 56 | 146 | 0.0 | 2.6 | 0.00 | 0.00 | 0.00 | 92 | 1004.5 |
| 20260506072316 | 56 | 240 | 1.7 | 2.6 | 0.00 | 0.00 | 0.00 | 92 | 1004.5 |
| 20260506071814 | 56 | 170 | 0.9 | 2.6 | 0.00 | 0.00 | 0.00 | 92 | 1004.5 |
| 20260506071312 | 56 | 307 | 1.7 | 1.7 | 0.00 | 0.00 | 0.00 | 92 | 1004.5 |
| 20260506070808 | 56 | 181 | 1.7 | 2.6 | 0.00 | 0.00 | 0.00 | 91 | 1004.5 |
| 20260506070305 | 56 | 134 | 1.7 | 5.2 | 0.00 | 0.00 | 0.00 | 91 | 1004.5 |
| 20260506062242 | 57 | 225 | 1.7 | 1.7 | 0.00 | 0.00 | 0.00 | 89 | 1004.5 |
| 20260506061738 | 58 | 161 | 0.9 | 2.6 | 0.00 | 0.00 | 0.00 | 88 | 1004.5 |
| 20260506061236 | 58 | 125 | 2.6 | 3.5 | 0.00 | 0.00 | 0.00 | 88 | 1004.5 |
| 20260506060734 | 58 | 164 | 0.9 | 1.7 | 0.00 | 0.00 | 0.00 | 87 | 1004.5 |
| 20260506060231 | 58 | 195 | 2.6 | 6.1 | 0.00 | 0.00 | 0.00 | 87 | 1004.5 |
| 20260506051203 | 59 | 225 | 1.7 | 2.6 | 0.00 | 0.00 | 0.00 | 84 | 1004.9 |
| 20260506050701 | 60 | 165 | 0.0 | 1.7 | 0.00 | 0.00 | 0.00 | 83 | 1004.9 |
| 20260506050158 | 60 | 256 | 2.6 | 2.6 | 0.00 | 0.00 | 0.00 | 82 | 1004.9 |
| 20260506044649 | 60 | 178 | 1.7 | 7.8 | 0.00 | 0.00 | 0.00 | 81 | 1004.9 |
| 20260506044145 | 60 | 161 | 2.6 | 2.6 | 0.00 | 0.00 | 0.00 | 81 | 1004.9 |
| 20260506043643 | 60 | 198 | 0.9 | 2.6 | 0.00 | 0.00 | 0.00 | 81 | 1004.9 |
| 20260506043141 | 59 | 200 | 1.7 | 1.7 | 0.00 | 0.00 | 0.00 | 81 | 1004.9 |
| 20260506042640 | 60 | 204 | 1.7 | 5.2 | 0.00 | 0.00 | 0.00 | 81 | 1004.9 |
| 20260506042137 | 60 | 141 | 1.7 | 1.7 | 0.00 | 0.00 | 0.00 | 80 | 1004.9 |
| 20260506041636 | 60 | 221 | 2.6 | 6.1 | 0.00 | 0.00 | 0.00 | 80 | 1004.9 |
| 20260506041132 | 60 | 219 | 0.9 | 5.2 | 0.00 | 0.00 | 0.00 | 79 | 1004.9 |
| 20260506040630 | 60 | 179 | 2.6 | 3.5 | 0.00 | 0.00 | 0.00 | 79 | 1004.9 |
| 20260506040126 | 60 | 167 | 1.7 | 2.6 | 0.00 | 0.00 | 0.00 | 79 | 1004.9 |
| 20260506035623 | 60 | 150 | 3.5 | 3.5 | 0.00 | 0.00 | 0.00 | 79 | 1005.2 |
| 20260506035120 | 60 | 148 | 3.5 | 3.5 | 0.00 | 0.00 | 0.00 | 79 | 1004.9 |
| 20260506034617 | 60 | 159 | 1.7 | 2.6 | 0.00 | 0.00 | 0.00 | 79 | 1004.9 |
| 20260506034114 | 60 | 197 | 2.6 | 5.2 | 0.00 | 0.00 | 0.00 | 78 | 1005.2 |
| 20260506033611 | 60 | 185 | 1.7 | 2.6 | 0.00 | 0.00 | 0.00 | 78 | 1005.2 |
| 20260506033108 | 60 | 159 | 1.7 | 2.6 | 0.00 | 0.00 | 0.00 | 78 | 1004.9 |
| 20260506032606 | 60 | 191 | 1.7 | 6.1 | 0.00 | 0.00 | 0.00 | 78 | 1004.9 |
| 20260506032102 | 61 | 155 | 1.7 | 3.5 | 0.00 | 0.00 | 0.00 | 77 | 1004.9 |
| 20260506031600 | 61 | 152 | 1.7 | 6.1 | 0.00 | 0.00 | 0.00 | 77 | 1004.9 |
| 20260506031056 | 61 | 115 | 3.5 | 3.5 | 0.00 | 0.00 | 0.00 | 77 | 1004.9 |
| 20260506030555 | 61 | 117 | 2.6 | 3.5 | 0.00 | 0.00 | 0.00 | 76 | 1004.9 |
| 20260506030052 | 61 | 162 | 2.6 | 3.5 | 0.00 | 0.00 | 0.00 | 76 | 1004.9 |
| 20260506025549 | 61 | 156 | 2.6 | 3.5 | 0.00 | 0.00 | 0.00 | 76 | 1004.9 |
| 20260506025044 | 61 | 214 | 1.7 | 5.2 | 0.00 | 0.00 | 0.00 | 76 | 1004.9 |
| 20260506024542 | 61 | 163 | 1.7 | 2.6 | 0.00 | 0.00 | 0.00 | 76 | 1004.9 |
| 20260506024038 | 61 | 244 | 1.7 | 2.6 | 0.00 | 0.00 | 0.00 | 76 | 1004.9 |
| 20260506023534 | 62 | 179 | 0.9 | 6.1 | 0.00 | 0.00 | 0.00 | 75 | 1004.9 |
| 20260506023032 | 62 | 172 | 0.9 | 3.5 | 0.00 | 0.00 | 0.00 | 75 | 1004.9 |
| 20260506022529 | 61 | 176 | 0.9 | 1.7 | 0.00 | 0.00 | 0.00 | 75 | 1004.9 |
| 20260506022027 | 62 | 166 | 1.7 | 5.2 | 0.00 | 0.00 | 0.00 | 75 | 1004.9 |
| 20260506021524 | 62 | 103 | 1.7 | 2.6 | 0.00 | 0.00 | 0.00 | 75 | 1005.2 |
| 20260506021021 | 62 | 171 | 0.9 | 1.7 | 0.00 | 0.00 | 0.00 | 74 | 1004.9 |
| 20260506020519 | 63 | 248 | 1.7 | 2.6 | 0.00 | 0.00 | 0.00 | 72 | 1004.9 |
| 20260506020016 | 63 | 153 | 1.7 | 5.2 | 0.00 | 0.00 | 0.00 | 72 | 1004.9 |
| 20260506015513 | 63 | 175 | 0.9 | 5.2 | 0.00 | 0.00 | 0.00 | 72 | 1004.9 |
| 20260506015010 | 63 | 177 | 1.7 | 2.6 | 0.00 | 0.00 | 0.00 | 71 | 1004.5 |
| 20260506014508 | 63 | 137 | 0.9 | 5.2 | 0.00 | 0.00 | 0.00 | 71 | 1004.5 |
| 20260506014003 | 63 | 173 | 0.9 | 7.8 | 0.00 | 0.00 | 0.00 | 70 | 1004.5 |
| 20260506013501 | 63 | 180 | 1.7 | 5.2 | 0.00 | 0.00 | 0.00 | 71 | 1004.5 |
| 20260506012957 | 64 | 166 | 1.7 | 3.5 | 0.00 | 0.00 | 0.00 | 69 | 1004.5 |
| 20260506012454 | 64 | 133 | 1.7 | 2.6 | 0.00 | 0.00 | 0.00 | 70 | 1004.5 |
| 20260506011951 | 64 | 150 | 0.9 | 1.7 | 0.00 | 0.00 | 0.00 | 70 | 1004.5 |
| 20260506011448 | 64 | 140 | 1.7 | 2.6 | 0.00 | 0.00 | 0.00 | 69 | 1004.2 |
| 20260506010945 | 64 | 205 | 0.9 | 3.5 | 0.00 | 0.00 | 0.00 | 69 | 1003.9 |
| 20260506010444 | 64 | 258 | 4.3 | 6.1 | 0.00 | 0.00 | 0.00 | 68 | 1004.2 |
| 20260506005939 | 64 | 161 | 3.5 | 5.2 | 0.00 | 0.00 | 0.00 | 69 | 1004.2 |
| 20260506005437 | 64 | 158 | 0.9 | 1.7 | 0.00 | 0.00 | 0.00 | 68 | 1004.2 |
| 20260506004932 | 64 | 146 | 3.5 | 5.2 | 0.00 | 0.00 | 0.00 | 68 | 1003.9 |
| 20260506004431 | 64 | 162 | 1.7 | 2.6 | 0.00 | 0.00 | 0.00 | 67 | 1003.9 |
| 20260506003926 | 64 | 151 | 0.9 | 2.6 | 0.00 | 0.00 | 0.00 | 68 | 1003.9 |
| 20260506003423 | 65 | 187 | 0.9 | 1.7 | 0.00 | 0.00 | 0.00 | 68 | 1003.9 |
| 20260506002920 | 65 | 156 | 0.0 | 2.6 | 0.00 | 0.00 | 0.00 | 67 | 1003.9 |
| 20260506002416 | 65 | 158 | 2.6 | 5.2 | 0.00 | 0.00 | 0.00 | 67 | 1003.5 |
| 20260506001911 | 65 | 167 | 0.0 | 1.7 | 0.00 | 0.00 | 0.00 | 67 | 1003.9 |
| 20260506001409 | 65 | 203 | 1.7 | 3.5 | 0.00 | 0.00 | 0.00 | 66 | 1003.5 |
| 20260506000906 | 66 | 197 | 0.9 | 2.6 | 0.00 | 0.00 | 0.00 | 66 | 1003.5 |
| 20260506000403 | 66 | 186 | 0.9 | 1.7 | 0.00 | 0.00 | 0.00 | 66 | 1003.5 |
| 20260505235900 | 66 | 191 | 2.6 | 3.5 | 0.00 | 0.00 | 0.00 | 66 | 1003.5 |
| 20260505235358 | 66 | 160 | 0.9 | 1.7 | 0.00 | 0.00 | 0.00 | 66 | 1003.2 |
| 20260505234854 | 66 | 212 | 0.9 | 5.2 | 0.00 | 0.00 | 0.00 | 66 | 1003.5 |
| 20260505234352 | 66 | 232 | 0.9 | 0.9 | 0.00 | 0.00 | 0.00 | 66 | 1003.2 |
| 20260505233849 | 66 | 174 | 0.9 | 2.6 | 0.00 | 0.00 | 0.00 | 66 | 1003.2 |
| 20260505233347 | 66 | 157 | 1.7 | 3.5 | 0.00 | 0.00 | 0.00 | 65 | 1003.2 |
| 20260505232844 | 66 | 160 | 1.7 | 5.2 | 0.00 | 0.00 | 0.00 | 65 | 1003.2 |
| 20260505232342 | 67 | 185 | 0.0 | 2.6 | 0.00 | 0.00 | 0.00 | 64 | 1003.2 |
| 20260505231838 | 67 | 158 | 0.9 | 1.7 | 0.00 | 0.00 | 0.00 | 64 | 1003.2 |
| 20260505231336 | 67 | 180 | 0.9 | 1.7 | 0.00 | 0.00 | 0.00 | 64 | 1003.2 |
| 20260505230834 | 68 | 262 | 1.7 | 3.5 | 0.00 | 0.00 | 0.00 | 63 | 1002.9 |
| 20260505230330 | 68 | 207 | 4.3 | 6.1 | 0.00 | 0.00 | 0.00 | 62 | 1002.9 |
| 20260505225827 | 68 | 160 | 1.7 | 6.1 | 0.00 | 0.00 | 0.00 | 63 | 1002.9 |
| 20260505225324 | 68 | 206 | 0.9 | 6.1 | 0.00 | 0.00 | 0.00 | 62 | 1002.5 |
| 20260505224819 | 68 | 169 | 2.6 | 6.1 | 0.00 | 0.00 | 0.00 | 61 | 1002.9 |
| 20260505224318 | 68 | 164 | 3.5 | 6.1 | 0.00 | 0.00 | 0.00 | 61 | 1002.5 |
| 20260505223814 | 68 | 124 | 3.5 | 3.5 | 0.00 | 0.00 | 0.00 | 61 | 1002.9 |
| 20260505223312 | 69 | 264 | 3.5 | 5.2 | 0.00 | 0.00 | 0.00 | 60 | 1002.5 |
| 20260505222807 | 69 | 178 | 1.7 | 7.0 | 0.00 | 0.00 | 0.00 | 60 | 1002.9 |
| 20260505222305 | 70 | 190 | 1.7 | 6.1 | 0.00 | 0.00 | 0.00 | 60 | 1002.9 |
| 20260505221801 | 70 | 165 | 1.7 | 6.1 | 0.00 | 0.00 | 0.00 | 60 | 1002.9 |
| 20260505221257 | 70 | 167 | 3.5 | 5.2 | 0.00 | 0.00 | 0.00 | 59 | 1002.9 |
| 20260505220754 | 70 | 170 | 2.6 | 6.1 | 0.00 | 0.00 | 0.00 | 59 | 1002.9 |
| 20260505220251 | 71 | 173 | 2.6 | 5.2 | 0.00 | 0.00 | 0.00 | 59 | 1002.9 |
| 20260505215750 | 71 | 246 | 1.7 | 5.2 | 0.00 | 0.00 | 0.00 | 58 | 1002.5 |
| 20260505215247 | 71 | 236 | 3.5 | 7.0 | 0.00 | 0.00 | 0.00 | 58 | 1002.9 |
| 20260505214745 | 71 | 230 | 0.9 | 2.6 | 0.00 | 0.00 | 0.00 | 58 | 1002.5 |
| 20260505214242 | 72 | 137 | 5.2 | 7.0 | 0.00 | 0.00 | 0.00 | 57 | 1002.9 |
| 20260505213739 | 72 | 193 | 2.6 | 6.1 | 0.00 | 0.00 | 0.00 | 57 | 1002.5 |
| 20260505213236 | 72 | 150 | 1.7 | 5.2 | 0.00 | 0.00 | 0.00 | 58 | 1002.5 |
| 20260505212732 | 72 | 166 | 2.6 | 5.2 | 0.00 | 0.00 | 0.00 | 57 | 1002.5 |
| 20260505212230 | 73 | 174 | 0.9 | 2.6 | 0.00 | 0.00 | 0.00 | 57 | 1002.5 |
| 20260505211726 | 72 | 201 | 2.6 | 6.1 | 0.00 | 0.00 | 0.00 | 57 | 1002.5 |
| 20260505211224 | 72 | 158 | 1.7 | 6.1 | 0.00 | 0.00 | 0.00 | 58 | 1002.5 |
| 20260505210720 | 73 | 218 | 3.5 | 5.2 | 0.00 | 0.00 | 0.00 | 56 | 1002.5 |
| 20260505210217 | 73 | 202 | 3.5 | 6.1 | 0.00 | 0.00 | 0.00 | 55 | 1002.5 |
| 20260505205714 | 74 | 139 | 1.7 | 3.5 | 0.00 | 0.00 | 0.00 | 55 | 1002.1 |
| 20260505205213 | 74 | 228 | 3.5 | 7.0 | 0.00 | 0.00 | 0.00 | 54 | 1002.5 |
| 20260505204709 | 73 | 200 | 1.7 | 5.2 | 0.00 | 0.00 | 0.00 | 55 | 1002.5 |
| 20260505204207 | 74 | 140 | 1.7 | 7.8 | 0.00 | 0.00 | 0.00 | 55 | 1002.5 |
| 20260505203704 | 73 | 137 | 0.9 | 5.2 | 0.00 | 0.00 | 0.00 | 55 | 1002.5 |
| 20260505203200 | 74 | 169 | 1.7 | 5.2 | 0.00 | 0.00 | 0.00 | 54 | 1002.1 |
| 20260505202656 | 74 | 151 | 4.3 | 6.1 | 0.00 | 0.00 | 0.00 | 55 | 1002.1 |
| 20260505202152 | 74 | 178 | 2.6 | 3.5 | 0.00 | 0.00 | 0.00 | 55 | 1002.5 |
| 20260505201649 | 75 | 235 | 4.3 | 6.1 | 0.00 | 0.00 | 0.00 | 53 | 1002.5 |
| 20260505201147 | 75 | 194 | 2.6 | 6.1 | 0.00 | 0.00 | 0.00 | 55 | 1002.5 |
| 20260505200645 | 74 | 219 | 3.5 | 6.1 | 0.00 | 0.00 | 0.00 | 54 | 1002.5 |
| 20260505200141 | 75 | 126 | 2.6 | 9.6 | 0.00 | 0.00 | 0.00 | 54 | 1002.5 |
| 20260505195637 | 74 | 111 | 3.5 | 7.0 | 0.00 | 0.00 | 0.00 | 54 | 1002.5 |
| 20260505195135 | 75 | 170 | 0.9 | 5.2 | 0.00 | 0.00 | 0.00 | 54 | 1002.9 |
| 20260505194632 | 75 | 252 | 2.6 | 3.5 | 0.00 | 0.00 | 0.00 | 53 | 1002.9 |
| 20260505194128 | 75 | 131 | 2.6 | 6.1 | 0.00 | 0.00 | 0.00 | 53 | 1002.9 |
| 20260505193625 | 75 | 191 | 2.6 | 5.2 | 0.00 | 0.00 | 0.00 | 53 | 1002.9 |
| 20260505193122 | 75 | 262 | 2.6 | 8.7 | 0.00 | 0.00 | 0.00 | 53 | 1002.9 |
| 20260505192620 | 75 | 214 | 3.5 | 6.1 | 0.00 | 0.00 | 0.00 | 53 | 1002.5 |
| 20260505192117 | 76 | 198 | 2.6 | 8.7 | 0.00 | 0.00 | 0.00 | 51 | 1002.9 |
| 20260505191616 | 76 | 172 | 1.7 | 5.2 | 0.00 | 0.00 | 0.00 | 54 | 1002.9 |
| 20260505191113 | 76 | 236 | 3.5 | 6.1 | 0.00 | 0.00 | 0.00 | 51 | 1003.2 |
| 20260505190609 | 77 | 164 | 6.1 | 11.3 | 0.00 | 0.00 | 0.00 | 52 | 1003.2 |
| 20260505190104 | 77 | 139 | 0.9 | 3.5 | 0.00 | 0.00 | 0.00 | 52 | 1003.2 |
| 20260505185601 | 76 | 136 | 2.6 | 6.1 | 0.00 | 0.00 | 0.00 | 52 | 1003.2 |
| 20260505185057 | 77 | 192 | 2.6 | 6.1 | 0.00 | 0.00 | 0.00 | 50 | 1003.5 |
| 20260505184554 | 77 | 292 | 1.7 | 2.6 | 0.00 | 0.00 | 0.00 | 49 | 1003.5 |
| 20260505184051 | 78 | 160 | 5.2 | 7.8 | 0.00 | 0.00 | 0.00 | 49 | 1003.2 |
| 20260505183547 | 78 | 236 | 4.3 | 6.1 | 0.00 | 0.00 | 0.00 | 48 | 1003.2 |
| 20260505183045 | 78 | 172 | 2.6 | 5.2 | 0.00 | 0.00 | 0.00 | 47 | 1003.2 |
| 20260505182541 | 78 | 147 | 3.5 | 7.8 | 0.00 | 0.00 | 0.00 | 48 | 1003.5 |
| 20260505182038 | 78 | 200 | 6.1 | 7.8 | 0.00 | 0.00 | 0.00 | 47 | 1003.5 |
| 20260505181535 | 77 | 203 | 3.5 | 5.2 | 0.00 | 0.00 | 0.00 | 49 | 1003.5 |
| 20260505181032 | 78 | 181 | 2.6 | 7.8 | 0.00 | 0.00 | 0.00 | 48 | 1003.5 |
| 20260505180528 | 78 | 191 | 3.5 | 6.1 | 0.00 | 0.00 | 0.00 | 48 | 1003.5 |
| 20260505180027 | 77 | 142 | 2.6 | 6.1 | 0.00 | 0.00 | 0.00 | 49 | 1003.5 |
| 20260505175526 | 78 | 179 | 3.5 | 7.0 | 0.00 | 0.00 | 0.00 | 48 | 1003.5 |
| 20260505175023 | 78 | 228 | 1.7 | 7.0 | 0.00 | 0.00 | 0.00 | 48 | 1003.5 |
| 20260505174520 | 78 | 123 | 2.6 | 6.1 | 0.00 | 0.00 | 0.00 | 48 | 1003.5 |
| 20260505174016 | 78 | 183 | 1.7 | 7.8 | 0.00 | 0.00 | 0.00 | 50 | 1003.5 |
| 20260505173513 | 78 | 152 | 3.5 | 5.2 | 0.00 | 0.00 | 0.00 | 47 | 1003.5 |
| 20260505173010 | 79 | 236 | 1.7 | 3.5 | 0.00 | 0.00 | 0.00 | 47 | 1003.5 |
| 20260505172508 | 78 | 131 | 1.7 | 7.0 | 0.00 | 0.00 | 0.00 | 48 | 1003.9 |
| 20260505172003 | 78 | 197 | 1.7 | 5.2 | 0.00 | 0.00 | 0.00 | 50 | 1003.5 |
| 20260505171459 | 77 | 212 | 2.6 | 6.1 | 0.00 | 0.00 | 0.00 | 49 | 1003.5 |
| 20260505170956 | 79 | 214 | 1.7 | 3.5 | 0.00 | 0.00 | 0.00 | 47 | 1003.9 |
| 20260505170452 | 78 | 179 | 2.6 | 6.1 | 0.00 | 0.00 | 0.00 | 48 | 1003.5 |
| 20260505165948 | 77 | 163 | 2.6 | 3.5 | 0.00 | 0.00 | 0.00 | 49 | 1003.9 |
| 20260505165444 | 77 | 231 | 3.5 | 5.2 | 0.00 | 0.00 | 0.00 | 47 | 1003.9 |
| 20260505164939 | 77 | 224 | 2.6 | 5.2 | 0.00 | 0.00 | 0.00 | 47 | 1003.9 |
| 20260505164436 | 75 | 160 | 1.7 | 3.5 | 0.00 | 0.00 | 0.00 | 50 | 1003.9 |
| 20260505163934 | 77 | 274 | 5.2 | 7.0 | 0.00 | 0.00 | 0.00 | 49 | 1003.9 |
| 20260505163433 | 76 | 167 | 1.7 | 7.0 | 0.00 | 0.00 | 0.00 | 50 | 1004.2 |
| 20260505162932 | 77 | 336 | 1.7 | 6.1 | 0.00 | 0.00 | 0.00 | 51 | 1004.2 |
| 20260505162427 | 77 | 111 | 2.6 | 6.1 | 0.00 | 0.00 | 0.00 | 50 | 1004.5 |
| 20260505161924 | 76 | 234 | 1.7 | 1.7 | 0.00 | 0.00 | 0.00 | 50 | 1004.5 |
| 20260505161421 | 77 | 224 | 1.7 | 2.6 | 0.00 | 0.00 | 0.00 | 51 | 1004.2 |
| 20260505160918 | 75 | 134 | 1.7 | 6.1 | 0.00 | 0.00 | 0.00 | 53 | 1004.5 |
| 20260505160416 | 76 | 150 | 3.5 | 3.5 | 0.00 | 0.00 | 0.00 | 51 | 1004.2 |
| 20260505153349 | 75 | 148 | 0.9 | 2.6 | 0.00 | 0.00 | 0.00 | 53 | 1004.5 |
| 20260505152846 | 74 | 153 | 3.5 | 3.5 | 0.00 | 0.00 | 0.00 | 53 | 1004.5 |
| 20260505152343 | 74 | 140 | 2.6 | 5.2 | 0.00 | 0.00 | 0.00 | 54 | 1004.9 |
| 20260505151838 | 73 | 207 | 0.9 | 5.2 | 0.00 | 0.00 | 0.00 | 53 | 1004.9 |
| 20260505151335 | 72 | 221 | 1.7 | 3.5 | 0.00 | 0.00 | 0.00 | 55 | 1004.9 |
| 20260505150831 | 73 | 161 | 3.5 | 5.2 | 0.00 | 0.00 | 0.00 | 55 | 1004.9 |
| 20260505150328 | 74 | 163 | 1.7 | 2.6 | 0.00 | 0.00 | 0.00 | 56 | 1005.2 |